Morrisville, NC

3:34 PM EST on February 24, 2017 (GMT -0500)
Raleigh-Durham International

Weather History for KRDU - October, 2013

Change the Weather History Date:

Thursday, October 10, 2013

  Actual Average Record
Temperature  
Mean Temperature 57 °F 63 °F  
Max Temperature 61 °F 74 °F 91 °F (1939)
Min Temperature 53 °F 52 °F 31 °F (2000)
Degree Days  
Heating Degree Days 8 4  
Month to date heating degree days 19 31  
Since 1 July heating degree days 30 52  
Cooling Degree Days 0 2  
Month to date cooling degree days 48 28  
Year to date cooling degree days 1543 1696  
Growing Degree Days 7 (Base 50)    
Moisture  
Dew Point 55 °F    
Average Humidity 91    
Maximum Humidity 97    
Minimum Humidity 84    
Precipitation  
Precipitation 0.14 in 0.10 in 1.30 in (1959)
Month to date precipitation 1.19 1.10  
Year to date precipitation 41.57 35.00  
Sea Level Pressure  
Sea Level Pressure 30.00 in    
Wind  
Wind Speed 6 mph (North)    
Max Wind Speed 13 mph    
Max Gust Speed 18 mph    
Visibility 8 miles    
Events Rain    
T = Trace of Precipitation, MM = Missing Value Source: NWS Daily Summary

Daily Weather History Graph

Daily Weather History Graph

Search for Another Location

Airport or City:

Trip Planner

Search our weather history database for the weather conditions in past years. The results will help you decide how hot, cold, wet, or windy it might be!

Date:

Astronomy

Oct. 10, 2013 Rise Set
Actual Time 7:17 AM EDT 6:45 PM EDT
Civil Twilight 6:52 AM EDT 7:11 PM EDT
Nautical Twilight 6:22 AM EDT 7:41 PM EDT
Astronomical Twilight 5:52 AM EDT 8:10 PM EDT
Moon 1:00 PM EDT (10/10) 11:28 PM EDT (10/10)
Length of Visible Light 12h 19m
Length of Day
11h 28m
Waxing Crescent, 35% of the Moon is Illuminated
Oct 10
Waxing Crescent
Oct 11
First Quarter
Oct 18
Full
Oct 26
Last Quarter
Nov 3
New

Hourly Weather History & Observations

Time (EDT) Temp. Dew Point Humidity Pressure Visibility Wind Dir Wind Speed Gust Speed Precip Events Conditions
12:51 AM 54.0 °F 52.0 °F 93% 30.07 in 10.0 mi NNE 9.2 mph 16.1 mph 0.00 in   Overcast
1:51 AM 54.0 °F 52.0 °F 93% 30.06 in 10.0 mi NNE 10.4 mph 16.1 mph 0.00 in   Light Drizzle
2:51 AM 54.0 °F 52.0 °F 93% 30.04 in 10.0 mi North 8.1 mph - 0.00 in   Light Drizzle
3:51 AM 54.0 °F 51.1 °F 90% 30.03 in 10.0 mi Variable 4.6 mph - 0.00 in   Overcast
4:51 AM 54.0 °F 51.1 °F 90% 30.02 in 10.0 mi North 8.1 mph - N/A   Overcast
5:51 AM 54.0 °F 52.0 °F 93% 30.02 in 8.0 mi Variable 4.6 mph - 0.00 in Rain Light Rain
6:51 AM 53.1 °F 52.0 °F 96% 30.02 in 4.0 mi Variable 5.8 mph - 0.02 in Rain Light Rain
7:17 AM 53.6 °F 51.8 °F 94% 30.02 in 2.0 mi Variable 5.8 mph - 0.06 in Rain Light Rain
7:51 AM 53.1 °F 52.0 °F 96% 30.03 in 2.0 mi Variable 3.5 mph - 0.10 in   Light Drizzle
8:45 AM 53.6 °F 51.8 °F 94% 30.03 in 6.0 mi Variable 4.6 mph - 0.00 in   Light Drizzle
8:51 AM 54.0 °F 52.0 °F 93% 30.03 in 6.0 mi North 8.1 mph - 0.00 in   Light Drizzle
9:51 AM 54.0 °F 52.0 °F 93% 30.04 in 5.0 mi Variable 5.8 mph - 0.01 in   Light Drizzle
10:51 AM 55.0 °F 53.1 °F 93% 30.03 in 8.0 mi Variable 4.6 mph - 0.00 in   Overcast
11:51 AM 55.9 °F 54.0 °F 93% 30.03 in 3.0 mi North 6.9 mph - 0.00 in   Light Drizzle
12:51 PM 57.0 °F 54.0 °F 89% 30.01 in 10.0 mi Variable 6.9 mph - 0.00 in   Overcast
1:51 PM 57.9 °F 55.0 °F 90% 29.99 in 10.0 mi North 9.2 mph 16.1 mph N/A   Overcast
2:51 PM 59.0 °F 55.9 °F 90% 29.97 in 10.0 mi Variable 5.8 mph - N/A   Overcast
3:51 PM 60.1 °F 55.9 °F 86% 29.96 in 10.0 mi Variable 5.8 mph - N/A   Overcast
4:51 PM 61.0 °F 57.0 °F 87% 29.96 in 10.0 mi Variable 6.9 mph - 0.00 in   Overcast
5:03 PM 60.8 °F 57.2 °F 88% 29.96 in 10.0 mi NNE 5.8 mph - N/A   Overcast
5:51 PM 61.0 °F 57.0 °F 87% 29.96 in 10.0 mi NNE 4.6 mph - N/A   Overcast
6:51 PM 61.0 °F 57.0 °F 87% 29.97 in 10.0 mi Variable 4.6 mph - N/A   Overcast
7:51 PM 61.0 °F 57.9 °F 90% 29.96 in 10.0 mi North 6.9 mph - 0.00 in   Light Drizzle
8:51 PM 61.0 °F 57.9 °F 90% 29.96 in 10.0 mi Variable 3.5 mph - 0.00 in   Light Drizzle
9:51 PM 61.0 °F 57.9 °F 90% 29.96 in 4.0 mi NNE 3.5 mph - 0.00 in   Light Drizzle
10:02 PM 60.8 °F 59.0 °F 94% 29.97 in 6.0 mi Variable 3.5 mph - 0.00 in   Light Drizzle
10:51 PM 60.1 °F 59.0 °F 96% 29.96 in 5.0 mi North 5.8 mph - 0.00 in   Light Drizzle
11:51 PM 60.1 °F 57.9 °F 93% 29.95 in 9.0 mi Variable 3.5 mph - 0.01 in   Light Drizzle